YAOGAN 12

导读

YAOGAN 12(遥感十二号)是中国于2011年11月9日发射的遥感卫星,作为我国对地观测体系的重要组成部分,延续了遥感系列卫星的技术路线。它依托空间遥感平台,通过搭载的遥感器对地球开展探测,获取国土资源、农业、环境等领域观测数据,可为灾害监测、资源调查、城市规划等应用领域提供科学数据支撑,服务国民经济建设发展。

基本信息
目录编号:
37875
目录名称:
YAOGAN 12
国际标识:
2011-066B
轨道中心:
EARTH
卫星名称:
YAOGAN 12
卫星全名:
--
卫星状态:
在轨 (已飞行5420 天)
发射日期:
2011-11-09 UTC
国别 :
中国 (CN)
星等 :
--
该卫星已列入 空间交会检测服务 Space Conjunction Data Service (SCDS) ,当前飞行风险评估等级: 无高风险
轨道信息
数据来源 国际轨道数据 AOE轨道数据
星历时间 2026-09-11T07:30:34+0800
7小时前
查看轨道信息
2026-09-10T22:00:00+0800
17小时前
查看轨道信息
半长轴 6861.927km 6861.911km
偏心率 0.0008112 0.0008341
轨道倾角 97.108° 97.110°
近地点辐角 280.238° 278.274°
升交点赤经 288.525° 288.149°
平近点角 79.794° 64.590°
近地点 478.223km 478.05km
远地点 489.357km 489.498km
周期 94.282分钟 94.282分钟
每日圈数 15.273328 15.273382
详细信息
使用方式:
暂无
2D轨道图
3D轨道图
轨道高度分析图
轨道倾角分析图
轨道综合分析图
查看轨道综合分析图
交会数据列表
事件ID 空间交会对象 最接近时刻(TCA) 交会距离 交会风险概率(CRP) 交会风险指数(CRI) 操作
CDM_260911-163803-787505-723124
2026-09-11T
16:38:31+0000
0.334 km
远距离
4.156032E-4 高风险 0.87
CDM_260905-124803-787505-992724
2026-09-05T
12:48:55+0000
0.459 km
远距离
2.247004E-4 高风险 0.82
CDM_260912-082003-787505-957326
2026-09-12T
08:20:28+0000
0.775 km
远距离
5.488657E-5 中风险 0.7
CDM_260912-034703-182003-787528
2026-09-12T
03:47:48+0000
0.906 km
远距离
3.858905E-5 中风险 0.67
CDM_260913-090403-787505-638123
2026-09-13T
09:04:45+0000
0.864 km
远距离
3.409836E-5 中风险 0.66
CDM_260913-031203-787505-725524
2026-09-13T
03:12:43+0000
0.939 km
远距离
2.977835E-5 中风险 0.64
CDM_260911-132903-787506-696421
2026-09-11T
13:29:18+0000
1.225 km
极远距离
1.230097E-5 中风险 0.57
CDM_260913-073103-787506-389923
2026-09-13T
07:31:04+0000
1.385 km
极远距离
7.363924E-6 低风险 0.52
CDM_260911-225403-787505-948426
2026-09-11T
22:54:42+0000
1.673 km
极远距离
3.784898E-6 低风险 0.47
CDM_260904-224603-787505-782623
2026-09-04T
22:46:47+0000
1.558 km
极远距离
3.677808E-6 低风险 0.46
与全量物体交会距离演化趋势
与全量物体交会风险概率演化趋势